User: anonymous   Login
Location: Caltech
(34.1382°N, 118.1253°W)
Time: 06:15:28
(UTC-07:00)
Language:

IRS-1A Rocket - Orbit

View from above orbital plane
View from above orbital plane
View from above satellite
View from above satellite

Ground track
Ground track

The orbit data is extracted from the following two-line orbital elements,

1 18961U 88021B   17290.02442088 -.00000096  00000-0 -32470-4 0  9998
2 18961  99.3405 300.6725 0053779 253.9804 158.6980 14.00745418512461
Epoch (UTC): 17 October 2017 00:35:09
Eccentricity: 0.0053779
inclination: 99.3405°
perigee height: 852 km
apogee height: 930 km
right ascension of ascending node: 300.6725°
argument of perigee: 253.9804°
revolutions per day: 14.00745418
mean anomaly at epoch: 158.6980°
orbit number at epoch: 51246

The dashed part of the orbit path shows where the satellite is in the earth's shadow,  

DLR